Location: Freistett
(48.6663°N, 7.9410°E)
Time: 13:47:18
(UTC+00:00)

Daily predictions for brighter satellites

Satellite Brightness Start Highest point End
(mag) Time Altitude Azimuth Time Altitude Azimuth Time Altitude Azimuth
CZ-4C R/B 3.9 18:53:42 10° W 18:58:35 37° NNW 19:04:28 10° NE
MetOp-A 4.2 18:53:17 10° SSE 18:58:38 85° ENE 19:04:02 10° NNW
Cosmos 2227 Rocket 3.4 18:55:00 10° SE 18:58:59 20° E 19:02:58 10° NE
BREEZE-M DEB (TANK) 3.6 18:57:34 10° WSW 19:00:30 71° SSE 19:07:43 10° ENE
Cosmos 1092 Rocket 4.1 18:54:26 10° N 19:00:44 90° NNE 19:06:55 10° S
ATLAS 2AS CENTAUR R/B 3.3 18:52:50 10° SW 19:00:47 77° NW 19:08:33 10° NE
Cosmos 2058 2.9 18:59:13 10° N 19:03:26 73° E 19:07:34 10° SSE
Cosmos 2297 Rocket 3.0 19:00:42 10° SSE 19:05:26 28° ESE 19:10:11 10° NE
Cosmos 1633 3.9 19:03:07 10° NNE 19:06:01 22° ENE 19:08:52 10° SE
Lacrosse 5 rocket 3.3 19:03:49 10° WNW 19:07:21 27° N 19:11:03 10° NE
Cosmos 405 3.5 19:04:00 10° SSW 19:07:26 63° WNW 19:10:56 10° N
FALCON 9 DEB 4.2 19:08:34 10° S 19:10:52 20° SE 19:13:11 10° E
Resurs 01 Rocket 2.5 19:09:13 10° SE 19:13:11 33° ENE 19:17:10 10° N
Genesis I 3.9 19:10:01 10° NNW 19:13:52 44° NE 19:17:40 10° ESE
Cosmos 2219 3.9 19:09:46 10° SSE 19:14:33 30° ESE 19:19:23 10° NE
Resurs 1-3 3.8 19:10:34 10° SSE 19:14:50 53° ENE 19:19:07 10° N
BREEZE-M DEB (TANK) 3.5 19:11:54 10° WSW 19:15:35 85° SSE 19:28:21 10° ENE
Cosmos 2333 Rocket 3.6 19:10:37 10° NW 19:15:57 40° WSW 19:21:12 10° S
Cosmos 1689 Rocket 4.4 19:15:39 10° N 19:18:09 28° WNW 19:20:38 10° SW
SJ-6B 2.8 19:15:03 10° S 19:18:46 81° WSW 19:22:35 10° NNW
CZ-2C R/B 3.9 19:15:20 10° N 19:20:17 46° WNW 19:25:19 10° SW
Cosmos 2084 Rocket 4.3 19:19:22 10° S 19:22:33 23° ESE 19:25:47 10° ENE
ERS-2 3.0 19:19:05 10° N 19:22:39 54° WNW 19:26:13 10° SSW
FALCON 9 DEB 3.8 19:20:16 10° SSW 19:22:52 26° SE 19:25:29 10° E
Cosmos 389 Rocket 2.7 19:19:49 10° S 19:23:13 48° E 19:26:42 10° NNE
Ariane Rocket 3.0 19:20:11 10° SSE 19:25:14 79° ENE 19:30:18 10° NNW
Cosmos 614 Rocket 3.9 19:21:41 10° SSW 19:26:48 73° ESE 19:31:54 10° NNE
Terra 4.0 19:26:37 10° ENE 19:28:02 11° NE 19:29:26 10° NE
Cosmos 2251 Rocket 3.7 19:23:12 10° SSW 19:28:35 83° WNW 19:33:57 10° NNE
FALCON 9 DEB 3.5 19:25:58 10° WSW 19:29:22 65° NNW 19:32:48 10° ENE
ATLAS 3B R/B 3.5 19:23:44 10° NW 19:30:32 53° WSW 19:37:35 10° SSE
Cosmos 2279 Rocket 4.0 19:27:22 10° S 19:33:30 68° E 19:39:40 10° NNE
SPOT 1/Viking Rocket 4.4 19:33:39 13° SE 19:37:42 35° ENE 19:42:25 10° N
Cosmos 1980 3.8 19:32:49 10° NNW 19:38:33 85° WSW 19:44:11 10° SSE
MOS 1 4.4 19:32:57 10° SSE 19:38:36 81° WSW 19:44:18 10° NNW
SL-16 R/B 2.9 19:33:46 10° NNW 19:39:08 40° NE 19:43:26 15° ESE
Cosmos-2242 3.8 19:35:48 10° SSE 19:39:38 33° E 19:43:30 10° NNE
Cosmos 2151 3.2 19:36:18 10° N 19:40:33 53° ENE 19:44:09 14° SSE
USA 215 3.7 19:34:24 10° E 19:40:47 59° NNE 19:47:12 10° NW
FALCON 9 DEB 3.5 19:41:49 10° SSW 19:44:37 33° SE 19:46:41 15° E
SPOT 3 Rocket 3.6 19:40:39 11° SSE 19:45:30 64° ENE 19:50:38 10° N
Cosmos 1455 4.2 19:44:12 10° SW 19:47:34 31° WNW 19:50:57 10° N
COSMOS 2455 3.6 19:43:37 10° SSE 19:48:38 29° ESE 19:53:41 10° NE
SL-4 R/B 2.6 19:47:26 10° SW 19:51:34 42° SE 19:55:57 10° ENE
Cosmos 2219 Rocket 4.2 19:48:16 10° NW 19:52:47 25° WSW 19:57:15 10° SSW
BREEZE M DEB (TANK) 4.5 19:51:42 10° SSW 19:55:11 32° SE 20:03:59 10° ENE
ERS-1 Rocket 4.2 19:53:54 17° ESE 19:56:38 27° ENE 20:00:48 10° N
Cosmos 1076 Rocket 4.1 19:52:28 10° NNW 19:56:45 59° W 20:00:59 10° S
Cosmos 2266 Rocket 4.1 19:50:57 10° N 19:57:19 65° ENE 20:02:36 15° SSE
IGS 5A 3.4 19:54:20 17° SSE 19:57:31 71° ENE 20:01:40 10° N
OBJECT-B 3.1 19:56:04 10° SSW 19:58:44 24° W 20:01:27 10° NW
Landsat 7 3.8 19:55:13 16° SSE 19:58:55 67° ENE 20:03:40 10° N
Cosmos 2221 4.3 20:05:06 15° E 20:05:13 15° E 20:07:44 10° NE
ARIANE 5 R/B 3.3 20:04:04 23° ESE 20:06:15 39° ENE 20:10:21 10° N
Cosmos 2344 3.9 19:58:53 10° SW 20:06:17 70° NW 20:14:28 10° NE
USA 245 3.4 20:05:51 29° ESE 20:07:05 41° ENE 20:09:55 10° N
Cosmos 407 Rocket 3.4 20:02:14 10° SSW 20:07:22 87° ESE 20:12:36 10° NNE
Cosmos 1023 Rocket 4.4 20:07:21 10° SSW 20:12:26 88° ESE 20:17:34 10° NNE
Orbus 7S? 4.4 20:09:20 10° W 20:12:26 50° NNW 20:18:38 10° NE
MetOp-B 4.1 20:09:16 18° SSE 20:13:20 83° ENE 20:18:43 10° NNW
Meteor 2-3 Rocket 3.7 20:07:33 10° NNW 20:13:21 87° E 20:17:47 17° SSE
Cosmos 44 Rocket 3.8 20:14:17 10° S 20:18:58 39° ESE 20:23:47 10° NE
Meteor 1-27 4.3 20:14:09 13° S 20:19:14 61° E 20:24:59 10° NNE
Cosmos 1140 Rocket 3.5 20:15:31 10° SSW 20:20:39 83° WNW 20:25:49 10° NNE
Cosmos 1812 Rocket 4.4 20:18:06 10° SSW 20:22:27 53° WNW 20:26:51 10° N
CZ-2C R/B 3.5 20:19:50 10° NNE 20:24:18 74° ESE 20:27:43 17° S
Cosmos 1954 Rocket 4.0 20:19:40 10° S 20:24:44 60° ESE 20:29:50 10° NNE
Cosmos 2237 Rocket 3.2 20:20:56 10° NW 20:26:11 40° WSW 20:30:47 13° S
Timation 2 Rocket 4.0 20:21:06 10° SSW 20:27:40 86° ESE 20:33:59 10° NNE
Cosmos 2263 Rocket 3.6 20:34:38 19° E 20:34:38 19° E 20:37:46 10° NE
Cosmos 1766 Rocket 3.4 20:30:16 10° N 20:34:37 81° ENE 20:36:22 36° SSE
USA 229 DEB 4.4 20:27:41 10° NW 20:34:40 51° NE 20:39:35 22° ESE
Spot 2 Rocket 3.4 20:32:07 30° SSE 20:34:42 78° ENE 20:39:47 10° NNW
USA 229 4.4 20:27:47 10° NW 20:34:45 50° NE 20:39:41 21° ESE
CARTOSAT-1 3.6 20:33:27 38° SE 20:34:58 64° ENE 20:39:16 10° N
BREEZE M DEB (TANK) 2.3 20:28:15 10° WSW 20:35:22 87° S 20:36:34 35° E
Cosmos 1633 4.4 20:37:41 10° NNW 20:40:46 27° W 20:43:20 13° SW
FALCON 9 DEB 2.7 20:38:37 10° WSW 20:41:38 86° WSW 20:41:38 86° WSW
Cosmos 2227 Rocket 2.4 20:36:45 10° SW 20:42:25 74° WNW 20:48:07 10° NNE
Cosmos 2082 3.6 20:37:15 11° SSW 20:42:32 65° ESE 20:48:07 10° NNE
Okean 3 Rocket 3.6 20:39:15 10° N 20:43:48 83° W 20:45:39 36° S
H-2A R/B 4.4 20:41:18 10° NNE 20:44:42 31° E 20:44:42 31° E
FALCON 9 DEB 2.9 20:43:18 10° WSW 20:46:19 74° NNW 20:46:28 71° N
Lacrosse 5 rocket 2.8 20:43:30 10° NW 20:47:25 34° NNE 20:49:58 19° ENE
Cosmos 2297 Rocket 2.9 20:43:39 10° SW 20:49:11 54° NW 20:54:45 10° NNE
Cosmos 1869 3.2 20:47:58 37° SSW 20:49:28 84° W 20:53:26 10° N
Resurs 01 Rocket 3.2 20:46:09 12° SSW 20:49:40 31° W 20:53:39 10° NNW
Cosmos 468 Rocket 3.9 20:44:49 10° NNW 20:49:59 78° ENE 20:51:46 42° SE
Meteor 1-4 Rocket 2.4 20:50:30 58° SSW 20:51:07 84° WNW 20:54:41 10° N
NOSS 3-1 (A) 4.4 20:45:35 10° NW 20:52:42 58° NE 20:57:37 26° ESE
Cosmos 1603 4.5 20:48:25 10° NNW 20:53:50 41° NE 20:55:59 30° E
Cosmos 841 Rocket 4.1 20:49:47 10° NNW 20:54:46 44° ENE 20:56:15 35° E
FALCON 9 DEB 3.3 20:55:24 10° WSW 20:58:12 58° NW 20:58:12 58° NW
Cosmos 2219 4.0 20:52:59 10° SW 20:58:27 51° NW 21:03:57 10° NNE
Cosmos 2084 Rocket 4.2 20:57:52 10° WSW 21:01:45 49° NW 21:05:44 10° NE
Cosmos 1763 Rocket 3.3 20:57:44 10° NNW 21:02:50 86° WSW 21:04:17 48° SSE
Terra 1.8 21:03:52 51° SE 21:04:53 68° ENE 21:09:38 10° N
FALCON 9 DEB 4.4 21:03:24 10° WNW 21:06:39 38° N 21:07:41 30° NE
BREEZE-M DEB (TANK) 4.4 21:08:16 10° W 21:08:46 14° WSW 21:08:46 14° WSW
Cosmos 540 Rocket 3.5 21:05:30 10° NNW 21:10:37 63° ENE 21:11:41 50° ESE
Cosmos 921 Rocket 3.6 21:07:49 10° N 21:12:03 42° ENE 21:12:21 42° ENE
SPOT 5 2.8 21:14:08 51° S 21:15:14 73° WSW 21:20:06 10° NNW
NOSS 3-1 (C) 4.0 21:09:14 10° NW 21:16:40 86° SW 21:20:23 38° SE
Meteor 2-2 Rocket 4.1 21:15:41 43° S 21:17:41 79° E 21:23:24 10° NNE
Cosmos 1842 Rocket 3.4 21:20:26 72° S 21:20:53 86° E 21:25:23 10° N
SL-16 R/B 3.1 21:18:00 10° NW 21:23:16 40° WSW 21:25:19 29° SSW
USA 215 3.3 21:21:35 43° SSE 21:23:47 65° SW 21:30:18 10° WNW
SL-08 ROCKET BODY 4.3 21:23:55 10° N 21:30:01 88° E 21:31:37 52° S
SL-4 R/B 2.4 21:26:35 10° WSW 21:31:07 74° NNW 21:33:32 28° ENE
COSMOS 2455 3.3 21:28:14 10° SW 21:34:12 62° NW 21:40:12 10° NNE
Cosmos 1408 Rocket 4.2 21:30:07 10° NNW 21:34:17 47° W 21:34:52 44° WSW
ERS-1 Rocket 3.6 21:33:52 39° SW 21:35:12 48° W 21:40:04 10° NNW
ATLAS 5 CENTAUR R/B 4.4 21:35:04 10° NNW 21:38:33 18° NNE 21:42:26 10° ENE
Cosmos 2227 4.2 21:40:44 58° ESE 21:40:53 58° ESE 21:46:31 10° NE
Cosmos 1862 4.1 21:37:45 10° NNW 21:41:30 44° W 21:41:30 44° W
Sich 1 3.6 21:37:51 10° N 21:41:28 45° NE 21:41:28 45° NE
Cosmos 2221 2.9 21:41:54 54° WSW 21:42:18 57° WNW 21:46:32 10° N
Cosmos 1805 Rocket 3.8 21:38:02 10° N 21:41:58 60° NE 21:41:58 60° NE
ARIANE 5 R/B 4.3 21:41:36 22° WSW 21:42:50 25° W 21:46:28 10° NW
Meteor 1-20 Rocket 4.4 21:41:37 10° N 21:47:20 56° ENE 21:48:01 52° E
Cosmos 1943 3.0 21:43:44 10° NNW 21:49:24 89° ENE 21:50:06 70° SSE
Cosmos 1745 Rocket 3.9 21:45:46 10° N 21:52:06 90° WNW 21:53:25 59° S
SeaSat 1 3.6 21:48:16 10° NE 21:51:19 30° ENE 21:51:19 30° ENE
Cosmos 1570 Rocket 3.8 21:47:35 10° NNW 21:52:55 90° SSE 21:53:15 79° SSE
Cosmos 1743 Rocket 3.9 21:48:54 10° NNW 21:53:02 56° W 21:53:02 56° W
Cosmos 1709 Rocket 4.0 21:51:08 10° N 21:57:18 61° ENE 21:58:09 56° ESE
Spot 4 4.2 22:00:15 53° ENE 22:00:15 53° ENE 22:04:55 10° N
Cosmos 1633 Rocket 4.1 21:58:49 10° N 22:02:12 37° NE 22:02:12 37° NE
Cosmos 1606 3.8 22:06:56 42° NNW 22:06:56 42° NNW 22:09:39 10° N
S3M 4.0 22:05:25 57° SSW 22:06:51 85° W 22:13:18 10° N
Cosmos 883 Rocket 4.4 22:06:43 62° SE 22:07:20 66° E 22:13:34 10° NNE
Cosmos 1666 Rocket 4.1 22:09:18 10° N 22:12:59 53° NNE 22:12:59 53° NNE
Cosmos 2263 Rocket 2.2 22:16:15 60° WSW 22:17:12 73° WNW 22:22:48 10° NNE
Aureole 1 Rocket 4.1 22:17:34 39° WSW 22:19:02 50° WNW 22:23:23 10° NNE
Cosmos 968 Rocket 4.3 22:22:53 39° ENE 22:22:53 39° ENE 22:26:44 10° NNE
USA 229 DEB 4.1 22:18:44 10° NW 22:25:50 55° WSW 22:27:01 50° SSW
USA 229 4.1 22:18:49 10° NW 22:25:56 55° WSW 22:27:08 50° SSW
Lacrosse 5 rocket 2.4 22:22:34 10° NW 22:25:34 44° WNW 22:25:34 44° WNW
Cosmos 1782 4.4 22:28:48 30° NE 22:28:48 30° NE 22:31:03 10° NNE
Cosmos 1844 Rocket 3.8 22:30:56 30° ENE 22:30:56 30° ENE 22:34:31 10° NE
Cosmos 1151 Rocket 4.1 22:34:17 40° NNE 22:34:17 40° NNE 22:37:13 10° NNE
Cosmos 2208 Rocket 4.4 22:27:47 10° NNW 22:32:47 53° W 22:32:47 53° W
ALOS 2 3.3 22:35:37 49° NNE 22:35:37 49° NNE 22:39:04 10° N
Cosmos 1603 4.5 22:32:41 10° NW 22:37:52 39° WSW 22:37:52 39° WSW
CZ-4C R/B 4.4 22:34:01 10° NW 22:39:42 30° NNE 22:46:18 10° E
Terra 3.9 22:42:44 17° W 22:43:07 17° W 22:46:10 10° NW
NOSS 3-1 (A) 4.4 22:36:34 10° NW 22:43:49 50° WSW 22:45:03 46° SW
Cosmos 1486 Rocket 4.3 22:57:26 61° NE 22:57:26 61° NE 23:01:58 10° NNE
Meteor 1-5 Rocket 4.2 22:55:58 10° N 23:01:31 72° ENE 23:01:31 72° ENE
Cosmos 2154 Rocket 4.4 22:57:15 10° N 23:03:28 52° ENE 23:04:10 50° E
Meteor 1-14 Rocket 4.2 22:58:34 10° NNW 23:04:35 80° W 23:04:37 80° WSW
Meteor 2-6 Rocket 4.4 23:11:23 59° ENE 23:11:23 59° ENE 23:16:07 10° NNE
SL-4 R/B 3.7 23:06:32 10° WNW 23:09:09 32° WNW 23:09:09 32° WNW
NOSS 2-2 (C) 4.3 23:09:20 10° NW 23:14:35 82° WSW 23:14:35 82° WSW
Cosmos 2184 Rocket 3.8 23:08:17 10° N 23:14:40 86° E 23:14:58 81° SE
NOSS 2-2 (E) 4.4 23:10:23 10° NW 23:15:39 70° WSW 23:15:39 70° WSW
SJ 16-02 4.0 23:17:22 11° ENE 23:17:22 11° ENE 23:17:40 10° ENE
Cosmos 2315 Rocket 4.5 23:16:01 46° WSW 23:17:02 51° WNW 23:23:14 10° N
Cosmos 1515 Rocket 4.5 23:19:41 47° N 23:19:41 47° N 23:22:54 10° N
Cosmos 2278 Rocket 4.2 23:19:29 16° E 23:19:29 16° E 23:22:08 10° ENE
ATLAS 5 CENTAUR R/B 3.1 23:19:19 10° NNW 23:24:26 44° NE 23:27:06 28° E
SeaSat 1 3.5 23:25:49 10° NNE 23:30:24 39° NW 23:31:05 37° WNW
Cosmos 1241 Rocket 4.4 23:33:02 77° SE 23:33:14 78° ESE 23:39:52 10° NE
Nimbus 7 Rocket 4.4 23:33:47 10° NNE 23:39:38 71° WNW 23:39:53 70° W
Cosmos 2074 Rocket 4.1 23:34:51 10° NNW 23:41:02 61° W 23:41:12 61° W
USA 306 4.5 23:43:12 32° NE 23:43:12 32° NE 23:45:42 10° ENE
Cosmos 1844 3.7 23:41:40 84° NNW 23:41:40 84° NNW 23:47:16 10° NNE
COSMOS 2406 4.0 23:38:10 10° NNW 23:43:38 46° NE 23:44:55 40° E
Cosmos 1503 Rocket 4.2 23:44:44 69° N 23:44:44 69° N 23:49:22 10° NNE
USA 281 3.2 23:43:08 64° SE 23:44:14 81° ENE 23:50:51 10° NNW
Cosmos 962 Rocket 4.5 23:45:51 10° N 23:52:02 69° ENE 23:52:36 65° ESE
Gbstr 26 Del rocket 4.3 23:53:47 50° E 23:53:47 50° E 23:58:05 10° ENE
